Find Starlink 32311

NORAD ID: 62114 Int'l Des: 2024-222 Owner: SPXS Country: US Constellation: starlink operational
LEOCIRCULAR

リアルタイム位置

3D地球を読み込み中...

Starlink 32311について

説明を読み込み中...

次回通過

Passes for default location (London). Set your location on the main map for personalized predictions.

高度履歴

Loading altitude history...

軌道要素

1 62114U 24222A 26126.50110407 .00016858 00000-0 62069-3 0 9995
2 62114 43.0010 154.7125 0001601 277.6968 82.3702 15.27582392 81928
Epoch: May 6, 2026 • Age: 4 hours

現在のステータス

高度 494.5 km
速度 7.62 km/s
衛星直下点 -41.32°S, 26.63°W
打ち上げ日 Nov 27, 2024
運用期間 1.4 years
タイプ internet

技術仕様

分類 Payload
質量 730.00 kg
乾燥質量 700.00 kg
総質量 730.00 kg
長さ 0.30 m
直径 4.10 m
スパン 29.00 m
形状 Box + pan
製造者 SPXS
バスタイプ Starlink V2M
フェーズステータス In Orbit
所有者/国 SPXS/US

Most Searched